Regional Weather Roundup
Issued by NWS Cleveland, OH

Home | Current Version | Previous Version | Graphics & Text | Print | Product List | Glossary On
Versions: 1 2 3 4 5 6 7 8 9 10 11 12 13 14 15 16 17 18 19 20 21 22 23 24 25 26 27 28 29 30 31 32 33 34 35 36 37 38 39 40 41 42 43 44 45 46 47 48 49 50
000
ASUS41 KCLE 020502
RWRCLE
OHIO REGIONAL WEATHER ROUNDUP
NATIONAL WEATHER SERVICE CLEVELAND, OH
100 AM EDT SAT AUG 02 2014

NOTE: "FAIR" INDICATES FEW OR NO CLOUDS BELOW 12,000 FEET WITH NO
SIGNIFICANT WEATHER AND/OR OBSTRUCTIONS TO VISIBILITY.

OHZ001>008-015>018-024>027-034-035-043-044-020600-
   NORTHWEST OHIO

CITY           SKY/WX    TMP DP  RH WIND       PRES   REMARKS
DEFIANCE       CLEAR     63  58  83 E3        30.10F
FINDLAY        MOCLDY    71  61  70 SE5       30.09S
TOLEDO EXPRESS PTCLDY    66  60  81 CALM      30.09F
TOLEDO EXEC    CLEAR     67  61  81 CALM      30.10S
LIMA           MOCLDY    69  63  81 CALM      30.10S
$$

OHZ009>014-019>023-028>033-038-089-020600-
   NORTHEAST OHIO

CITY           SKY/WX    TMP DP  RH WIND       PRES   REMARKS
CLE-HOPKINS    MOCLDY    68  62  81 SE3       30.12S
CLE-LAKEFRONT  MOCLDY    74  61  63 E5        30.09R
CUY CO. ARPT   NOT AVBL
LORAIN-ELYRIA  PTCLDY    68  61  78 CALM      30.10F
ASHTABULA      CLEAR     62  60  93 CALM      30.13R FOG
AKRON-CANTON   CLEAR     66  61  84 CALM      30.11S
WOOSTER        CLEAR     62  60  93 NW3       30.12S FOG
MANSFIELD      PTCLDY    64  61  90 CALM      30.12S
YOUNGSTOWN     PTCLDY    63  57  81 SE7       30.12S
$$

OHZ042-051>053-060>062-070>072-077>081-020600-
  SOUTHWEST OHIO

CITY           SKY/WX    TMP DP  RH WIND       PRES   REMARKS
CINC-COVINGTON PTCLDY    71  61  70 N3        30.09R
CINC-LUNKEN    PTCLDY    66  64  93 CALM      30.08R
HAMILTON       MOCLDY    66  63  90 CALM      30.10R
DAYTON         MOCLDY    68  63  84 NE3       30.10S
WRIGHT-PAT AFB CLOUDY    69  64  85 N2        30.09S
DAYTON GENERAL MOCLDY    72  63  73 W5        30.09R
WILMINGTON     PTCLDY    62  60  93 CALM      30.09S
$$

OHZ036-037-039>041-045>050-054>059-063>069-073>076-082>088-020600-
  CENTRAL AND SOUTHEAST OHIO

CITY           SKY/WX    TMP DP  RH WIND       PRES   REMARKS
COLUMBUS       PTCLDY    71  62  73 E6        30.08S
OSU AIRPORT    PTCLDY    67  62  84 E6        30.09S
BOLTON FIELD   CLEAR     69  64  82 E3        30.09S
RICKENBACK AFB PTCLDY    70  60  72 NE7       30.08S
NEWARK         PTCLDY    66  63  90 CALM      30.09S FOG
MARION         PTCLDY    65  59  81 CALM      30.10S
LANCASTER      MOCLDY    66  63  90 CALM      30.10R FOG
ZANESVILLE     CLOUDY    68  63  84 CALM      30.10R
NEW PHILLY     PTCLDY    65  63  93 SE3       30.10S FOG
$$


USA.gov is the U.S. government's official web portal to all federal, state and local government web resources and services.